UAE8UW KJFK-OMDB

Flight info

Callsign UAE8UW
Flight time N/A
Altitude 33000
Route MERIT DCT HFD DCT PUT DCT WITCH DCT ALLEX N685B NEEKO/M085F360 DCT 54N050W 55N040W 55N030W 54N020W DCT MALOT DCT GISTI/N0488F370 DCT LESLU DCT LIZAD DCT JSY DCT ARSUK DCT RESMI DCT ODEBU DCT OGULO DCT OKASI DCT OKEKO DCT MOU DCT MADIV DCT MOKIP DCT TUFTA DCT KOGAS DCT MEDAM/N0481F390 DCT NITAM DCT MOGBO DCT UPDIN DCT SOMAS DCT BELIX DCT SALUN N705 MMA P751 DASUM Y234 FYM M872 TULOK/N0488F410 M872 BDB Y214 RAPMA DCT KUVSO DCT KATIT DCT PEKEM M628 RIGIL G783 ELUDA/N0506F350 G783 ASPED Q308 KIPOK Q568 IMPED
Aircraft A359/H-SDE2E3GHIJ1J3J4J5LM1ORWXY/LB1D1

Departure

Time N/A
Airport John F. Kennedy International Airport (KJFK)

Arrival

Time 2026-04-30 18:55
Airport Dubai International Airport (OMDB)
Time Latitude Longitude Altitude Speed Heading
2026-04-30 17:44 23.36039 48.87142 40902 ft 537 kts 95°
2026-04-30 17:47 23.32845 49.23090 40899 ft 520 kts 102°
2026-04-30 17:48 23.28887 49.50267 40896 ft 519 kts 102°
2026-04-30 17:50 23.24341 49.81290 40889 ft 520 kts 102°
2026-04-30 17:52 23.20889 50.04553 40886 ft 520 kts 102°
2026-04-30 17:54 23.15649 50.39413 40881 ft 520 kts 102°
2026-04-30 17:56 23.10964 50.70136 40875 ft 518 kts 102°
2026-04-30 17:58 23.07390 50.93297 40875 ft 518 kts 103°
2026-04-30 18:00 23.02575 51.24145 40878 ft 517 kts 102°
2026-04-30 18:01 22.99549 51.43327 40870 ft 517 kts 103°
2026-04-30 18:02 22.95875 51.66408 40867 ft 518 kts 103°
2026-04-30 18:04 22.92164 51.89505 40864 ft 518 kts 103°
2026-04-30 18:06 22.87161 52.20291 40862 ft 519 kts 103°
2026-04-30 18:08 22.82761 52.47197 40852 ft 518 kts 101°
2026-04-30 18:10 22.81684 52.78520 40853 ft 520 kts 94°
2026-04-30 18:11 22.80979 53.05650 40847 ft 519 kts 92°
2026-04-30 18:13 22.80451 53.25128 40842 ft 518 kts 93°
2026-04-30 18:14 22.79854 53.44656 40839 ft 519 kts 92°
2026-04-30 18:15 22.79170 53.68112 40837 ft 519 kts 92°
2026-04-30 18:16 22.78675 53.83731 40835 ft 519 kts 92°
2026-04-30 18:17 22.78383 53.91542 40831 ft 518 kts 95°
2026-04-30 18:18 22.78800 54.03150 40830 ft 519 kts 81°
2026-04-30 18:18 22.80240 54.10825 40832 ft 520 kts 79°
2026-04-30 18:19 22.81828 54.18481 40833 ft 521 kts 78°
2026-04-30 18:19 22.83415 54.26136 40824 ft 521 kts 79°
2026-04-30 18:20 22.84201 54.29975 40828 ft 521 kts 79°
2026-04-30 18:20 22.85486 54.36317 40829 ft 521 kts 79°
2026-04-30 18:21 22.86772 54.42688 40828 ft 521 kts 79°
2026-04-30 18:21 22.88330 54.50361 40832 ft 521 kts 79°
2026-04-30 18:22 22.89896 54.58036 40829 ft 521 kts 79°
2026-04-30 18:22 22.92174 54.69574 40826 ft 521 kts 78°
2026-04-30 18:23 22.93726 54.77257 40822 ft 522 kts 79°
2026-04-30 18:23 22.95243 54.84955 40823 ft 522 kts 79°
2026-04-30 18:24 22.97512 54.96521 40832 ft 522 kts 79°
2026-04-30 18:25 22.99032 55.04234 40830 ft 522 kts 79°
2026-04-30 18:25 23.01846 55.15660 40837 ft 524 kts 66°
2026-04-30 18:26 23.05905 55.22200 40839 ft 524 kts 44°
2026-04-30 18:26 23.08657 55.24767 40841 ft 522 kts 33°
2026-04-30 18:26 23.11780 55.26745 40840 ft 519 kts 22°
2026-04-30 18:27 23.17496 55.28636 40850 ft 514 kts
2026-04-30 18:28 23.27949 55.31573 40592 ft 517 kts 12°
2026-04-30 18:28 23.31438 55.32571 40340 ft 518 kts 12°
2026-04-30 18:28 23.38416 55.34606 39888 ft 519 kts 12°
2026-04-30 18:29 23.41898 55.35633 39637 ft 519 kts 12°
2026-04-30 18:29 23.52318 55.38720 38581 ft 520 kts 12°
2026-04-30 18:30 23.59317 55.40793 37386 ft 522 kts 12°
2026-04-30 18:30 23.66316 55.42866 36152 ft 521 kts 12°
2026-04-30 18:31 23.69754 55.43884 35495 ft 523 kts 11°
2026-04-30 18:31 23.76803 55.45973 34019 ft 527 kts 11°
2026-04-30 18:32 23.83831 55.48063 31170 ft 525 kts 11°
2026-04-30 18:32 23.87362 55.49113 29524 ft 528 kts 11°
2026-04-30 18:32 23.94398 55.51417 26418 ft 526 kts 19°
2026-04-30 18:33 23.97605 55.53170 25968 ft 504 kts 28°
2026-04-30 18:33 24.03045 55.57373 24560 ft 477 kts 35°
2026-04-30 18:33 24.05621 55.59686 23743 ft 479 kts 37°
2026-04-30 18:34 24.08149 55.62049 23104 ft 477 kts 38°
2026-04-30 18:34 24.13114 55.66744 21821 ft 466 kts 38°
2026-04-30 18:34 24.15556 55.69036 21201 ft 461 kts 38°
2026-04-30 18:35 24.17985 55.71302 20584 ft 456 kts 38°
2026-04-30 18:35 24.20407 55.73549 19963 ft 457 kts 37°
2026-04-30 18:35 24.22614 55.75591 19387 ft 455 kts 37°
2026-04-30 18:36 24.27333 55.79960 18121 ft 437 kts 37°
2026-04-30 18:36 24.29655 55.82109 17444 ft 436 kts 38°
2026-04-30 18:36 24.34250 55.86362 16163 ft 429 kts 38°
2026-04-30 18:37 24.36523 55.88469 15535 ft 426 kts 38°
2026-04-30 18:37 24.38766 55.90565 14921 ft 422 kts 39°
2026-04-30 18:37 24.40935 55.92679 14412 ft 413 kts 40°
2026-04-30 18:37 24.43058 55.94783 13867 ft 408 kts 41°
2026-04-30 18:38 24.45149 55.96876 13253 ft 405 kts 41°
2026-04-30 18:38 24.47207 55.98951 12658 ft 400 kts 41°
2026-04-30 18:38 24.49256 56.01017 12069 ft 400 kts 41°
2026-04-30 18:38 24.51295 56.03072 11486 ft 396 kts 41°
2026-04-30 18:39 24.53285 56.05077 11297 ft 380 kts 41°
2026-04-30 18:39 24.55192 56.07001 11150 ft 363 kts 41°
2026-04-30 18:39 24.57092 56.08700 11135 ft 343 kts 32°
2026-04-30 18:39 24.59144 56.09885 11035 ft 326 kts 21°
2026-04-30 18:40 24.61237 56.10735 10799 ft 316 kts 15°
2026-04-30 18:40 24.63309 56.11386 10602 ft 304 kts 11°
2026-04-30 18:40 24.65339 56.11920 10381 ft 300 kts
2026-04-30 18:40 24.67399 56.12420 10137 ft 305 kts
2026-04-30 18:41 24.69473 56.12934 9970 ft 305 kts
2026-04-30 18:41 24.71536 56.13468 9834 ft 304 kts
2026-04-30 18:41 24.73596 56.13998 9705 ft 302 kts
2026-04-30 18:41 24.75658 56.13957 9609 ft 293 kts 345°
2026-04-30 18:42 24.77615 56.13380 9458 ft 290 kts 335°
2026-04-30 18:42 24.80723 56.10758 9220 ft 282 kts 306°
2026-04-30 18:42 24.81936 56.09067 9097 ft 281 kts 304°
2026-04-30 18:45 24.93275 55.92030 7889 ft 273 kts 303°
2026-04-30 18:45 24.94392 55.90342 7766 ft 273 kts 303°
2026-04-30 18:45 24.95512 55.88639 7659 ft 272 kts 302°
2026-04-30 18:46 24.96558 55.87018 7544 ft 272 kts 301°
2026-04-30 18:46 24.97650 55.85317 7413 ft 272 kts 301°
2026-04-30 18:46 24.98740 55.83618 7309 ft 271 kts 301°
2026-04-30 18:46 24.99836 55.81924 7183 ft 271 kts 302°
2026-04-30 18:47 25.00866 55.80191 7075 ft 269 kts 297°
2026-04-30 18:47 25.01824 55.78414 6954 ft 270 kts 297°
2026-04-30 18:47 25.02880 55.76779 6734 ft 273 kts 306°
2026-04-30 18:47 25.03916 55.75120 6498 ft 270 kts 298°
2026-04-30 18:48 25.04876 55.73342 6230 ft 269 kts 300°
2026-04-30 18:48 25.05826 55.71594 5965 ft 269 kts 299°
2026-04-30 18:48 25.06777 55.69830 5751 ft 268 kts 300°
2026-04-30 18:48 25.07680 55.68179 5626 ft 269 kts 300°
2026-04-30 18:49 25.08654 55.66443 5385 ft 267 kts 300°
2026-04-30 18:49 25.09623 55.64712 5077 ft 263 kts 301°
2026-04-30 18:49 25.10549 55.63039 4724 ft 259 kts 300°
2026-04-30 18:49 25.11483 55.61348 4348 ft 257 kts 301°
2026-04-30 18:50 25.12418 55.59667 3985 ft 253 kts 302°
2026-04-30 18:50 25.13335 55.58015 3637 ft 250 kts 302°
2026-04-30 18:50 25.14222 55.56412 3340 ft 243 kts 302°
2026-04-30 18:50 25.15074 55.54872 3031 ft 232 kts 302°
2026-04-30 18:51 25.15907 55.53367 2743 ft 218 kts 303°
2026-04-30 18:51 25.16675 55.51982 2490 ft 204 kts 303°
2026-04-30 18:51 25.17383 55.50696 2262 ft 187 kts 303°
2026-04-30 18:51 25.18040 55.49512 2018 ft 175 kts 303°
2026-04-30 18:52 25.18657 55.48402 1781 ft 165 kts 303°
2026-04-30 18:52 25.19195 55.47430 1611 ft 156 kts 302°
2026-04-30 18:52 25.19758 55.46410 1387 ft 145 kts 302°
2026-04-30 18:52 25.20270 55.45492 1212 ft 136 kts 303°
2026-04-30 18:53 25.20745 55.44647 1019 ft 133 kts 301°
2026-04-30 18:53 25.21226 55.43742 898 ft 135 kts 300°
2026-04-30 18:53 25.21684 55.42899 760 ft 138 kts 302°
2026-04-30 18:53 25.22193 55.41993 621 ft 139 kts 300°
2026-04-30 18:54 25.22699 55.41094 375 ft 136 kts 298°
2026-04-30 18:54 25.23169 55.40251 228 ft 136 kts 299°
2026-04-30 18:54 25.23610 55.39437 37 ft 140 kts 297°
2026-04-30 18:54 25.24046 55.38635 30 ft 102 kts 303°
2026-04-30 18:55 25.24419 55.37992 31 ft 92 kts 300°
2026-04-30 18:55 25.24783 55.37199 30 ft 31 kts 272°
2026-04-30 18:55 25.24789 55.37006 28 ft 19 kts 272°
2026-04-30 18:56 25.24875 55.36727 28 ft 21 kts 284°
2026-04-30 18:56 25.24928 55.36603 28 ft 18 kts 306°
2026-04-30 18:56 25.24992 55.36483 28 ft 16 kts 300°
2026-04-30 18:57 25.25015 55.36391 28 ft 7 kts 232°
2026-04-30 18:57 25.25012 55.36388 28 ft 7 kts 228°
2026-04-30 18:57 25.25011 55.36387 28 ft 7 kts 226°
2026-04-30 18:58 25.25010 55.36385 28 ft 7 kts 224°
2026-04-30 18:58 25.25007 55.36383 28 ft 0 kts 221°